Tracking 25995 objects as of 20-Aug-2022
HD Live streaming from Space Station
objects crossing your sky now

THOR ABLESTAR DEB

Track THOR ABLESTAR DEB now!
10-day predictions


NORAD ID: 5808
Int'l Code: 1961-015KC
Perigee: 561.2 km
Apogee: 624.0 km
Inclination: 66.6 °
Period: 96.4 minutes
Semi major axis: 6963 km
RCS: 0.0039 m2 (small)
Launch date: June 29, 1961
Source: United States (US)
Launch site: AIR FORCE EASTERN TEST RANGE (AFETR)

Note: This is SATELLITE DEBRIS
aabbcc
Your satellite tracking list
Your tracking list is empty




NASA's NSSDC Master Catalog

Two Line Element Set (TLE):
1 05808U 61015KC  22230.66254581  .00007383  00000-0  68864-3 0  9996
2 05808  66.5887 203.2197 0045097  33.9761 326.4242 14.94016943195044
Source of the keplerian elements: AFSPC